Location: A�t Lahcen
(32.8243°N, 5.4246°W)
Time: 02:12:46
(UTC+00:00)

Cosmos 2237 Rocket - Pass Details

Date: 27 January 2021
Orbit: 833 x 851 km, 71.0° (Epoch: 26 February)

Event Time Altitude Azimuth Distance (km) Brightness Sun altitude
Exits shadow 05:24:40 17° 349° (N) 2,008 4.0 -24.2°
Drops below altitude 10° 05:26:12 10° 359° (N) 2,475 4.5 -23.9°
Sets 05:28:56 0° 10° (N) 3,416 5.4 -23.3°
